This is the latest recevied weather packets stored in our database for station/object DC4AT. If no packets are shown the sender has not sent any weather packets the latest 10 day(s).
| Time | Temp. | Humidity | Pressure | Rain* | Wind** | Luminosity | Snow |
|---|---|---|---|---|---|---|---|
| 1777379636 | 14.44° C | 45% | 1024.1 hPa | 0 mm | - | 673 W/m² | - |
| 1777379036 | 14.44° C | 43% | 1024.1 hPa | 0 mm | - | 680 W/m² | - |
| 1777378436 | 14.44° C | 45% | 1023.9 hPa | 0 mm | - | 686 W/m² | - |
| 1777377836 | 14.44° C | 45% | 1023.9 hPa | 0 mm | - | 687 W/m² | - |
| 1777377236 | 14.44° C | 45% | 1023.9 hPa | 0 mm | - | 691 W/m² | - |
| 1777376636 | 15° C | 46% | 1023.7 hPa | 0 mm | - | 696 W/m² | - |
| 1777376036 | 15° C | 46% | 1023.7 hPa | 0 mm | - | 693 W/m² | - |
| 1777375436 | 15° C | 47% | 1023.7 hPa | 0 mm | - | 698 W/m² | - |
| 1777374836 | 15° C | 47% | 1023.6 hPa | 0 mm | - | 693 W/m² | - |
| 1777374236 | 15° C | 48% | 1023.6 hPa | 0 mm | - | 671 W/m² | - |
| 1777373636 | 14.44° C | 48% | 1023.7 hPa | 0 mm | - | 663 W/m² | - |
| 1777373037 | 15° C | 48% | 1023.6 hPa | 0 mm | - | 671 W/m² | - |
| 1777372437 | 15° C | 46% | 1023.7 hPa | 0 mm | - | 657 W/m² | - |
| 1777371837 | 14.44° C | 49% | 1023.8 hPa | 0 mm | - | 631 W/m² | - |
| 1777371237 | 14.44° C | 51% | 1023.7 hPa | 0 mm | - | 677 W/m² | - |
| 1777370637 | 13.89° C | 49% | 1023.7 hPa | 0 mm | - | 649 W/m² | - |
| 1777370037 | 13.89° C | 56% | 1023.8 hPa | 0 mm | - | 679 W/m² | - |
| 1777369437 | 13.89° C | 54% | 1024 hPa | 0 mm | - | 663 W/m² | - |
| 1777368837 | 13.33° C | 56% | 1024.1 hPa | 0 mm | - | 664 W/m² | - |
| 1777368237 | 13.33° C | 57% | 1024.1 hPa | 0 mm | - | 645 W/m² | - |
| 1777367637 | 12.22° C | 59% | 1024.1 hPa | 0 mm | - | 626 W/m² | - |
| 1777367037 | 12.22° C | 60% | 1024.1 hPa | 0 mm | - | 552 W/m² | - |
| 1777366437 | 12.22° C | 62% | 1024.2 hPa | 0 mm | - | 443 W/m² | - |
| 1777365837 | 11.67° C | 64% | 1024.2 hPa | 0 mm | - | 371 W/m² | - |
| 1777365237 | 11.11° C | 65% | 1024.3 hPa | 0 mm | - | 476 W/m² | - |
* Rain latest hour (hover to see other rain measurements)
** Current wind speed in m/s (hover to see current wind gust speed)